Date String (YYYY-MM-DD hh:mm:ss) UTC,Instrument flags,Ambient pressure (hPa),Sample flow (lpm),Bypass flow (lpm),Sample temperature (°C),Ambient temperature (°C),ASC tube jacket temperature (°C),LED temperature (°C),Box temperature (°C),Sample RH (%),Span deviation,Mass concentration (μg/m³),Mass concentration (μg/m³),Mass concentration (μg/m³)
DateTimeUTC,F1_M11,P_M11,Q1_M11,Q2_M11,T1_M11,T2_M11,T3_M11,T4_M11,T5_M11,U1_M11,ZSPAN_M11,X0_M11,X2_M11,X1_M11
2021-09-30 18:00:00,,0834.6,5.01,0.00,27.4,26.6,00.0,36.4,29.2,21.5,-000.3,0010.73,0006.62,0006.19
2021-09-30 18:01:00,,0834.7,4.99,0.00,27.3,26.6,00.0,36.4,29.2,21.4,-000.3,0010.89,0006.69,0006.23
2021-09-30 18:02:00,,0834.7,5.01,0.00,27.4,26.6,00.0,36.4,29.2,21.5,-000.6,0011.16,0006.73,0006.27
2021-09-30 18:03:00,,0834.7,4.99,0.00,27.4,26.6,00.0,36.4,29.2,21.5,-000.6,0011.28,0006.76,0006.30
2021-09-30 18:04:00,,0834.7,4.99,0.00,27.4,26.6,00.0,36.4,29.3,21.5,-000.7,0011.31,0006.80,0006.32
2021-09-30 18:05:00,,0834.7,5.00,0.00,27.4,26.7,00.0,36.4,29.3,21.6,-000.6,0011.53,0006.86,0006.35
2021-09-30 18:06:00,,0834.7,5.00,0.00,27.4,26.7,00.0,36.4,29.3,21.6,-000.7,0011.63,0006.93,0006.39
2021-09-30 18:07:00,,0834.7,5.01,0.00,27.4,26.7,00.0,36.4,29.3,21.7,-001.2,0011.97,0006.94,0006.41
2021-09-30 18:08:00,,0834.7,5.00,0.00,27.4,26.7,00.0,36.4,29.3,21.7,-001.1,0011.51,0007.00,0006.47
2021-09-30 18:09:00,,0834.7,4.99,0.00,27.4,26.7,00.0,36.4,29.3,21.7,-000.6,0011.56,0007.05,0006.52
2021-09-30 18:10:00,,0834.7,5.01,0.00,27.4,26.7,00.0,36.4,29.4,21.9,-000.6,0011.93,0007.08,0006.54
2021-09-30 18:11:00,,0834.7,5.00,0.00,27.4,26.7,00.0,36.4,29.3,22.0,-000.8,0012.86,0007.12,0006.57
2021-09-30 18:12:00,,0834.7,5.00,0.00,27.5,26.7,00.0,36.4,29.3,21.9,-000.9,0012.97,0007.14,0006.59
2021-09-30 18:13:00,,0834.7,5.00,0.00,27.5,26.7,00.0,36.5,29.3,21.9,-000.7,0013.11,0007.18,0006.62
2021-09-30 18:14:00,,0834.6,5.00,0.00,27.5,26.7,00.0,36.5,29.3,21.7,-000.7,0013.48,0007.22,0006.64
2021-09-30 18:15:00,,0834.6,4.99,0.00,27.5,26.7,00.0,36.5,29.3,21.5,-000.3,0013.65,0007.29,0006.69
2021-09-30 18:16:00,,0834.6,5.01,0.00,27.5,26.7,00.0,36.5,29.3,21.5,-000.2,0013.53,0007.31,0006.73
2021-09-30 18:17:00,,0834.6,5.01,0.00,27.5,26.7,00.0,36.5,29.3,21.5,-000.1,0013.60,0007.37,0006.77
2021-09-30 18:18:00,,0834.7,5.00,0.00,27.5,26.7,00.0,36.5,29.3,21.7,0000.2,0013.22,0007.44,0006.80
2021-09-30 18:19:00,,0834.7,5.01,0.00,27.5,26.7,00.0,36.5,29.3,21.6,-000.0,0013.21,0007.48,0006.82
2021-09-30 18:20:00,,0834.6,4.98,0.00,27.5,26.7,00.0,36.5,29.3,21.6,-000.2,0013.16,0007.49,0006.84
2021-09-30 18:21:00,,0834.6,5.00,0.00,27.5,26.7,00.0,36.5,29.3,21.6,-000.1,0012.83,0007.51,0006.88
2021-09-30 18:22:00,,0834.7,5.00,0.00,27.4,26.7,00.0,36.5,29.2,21.9,0000.3,0012.17,0007.57,0006.91
2021-09-30 18:23:00,,0834.6,4.98,0.00,27.4,26.7,00.0,36.5,29.3,21.6,0000.3,0012.16,0007.64,0006.93
2021-09-30 18:24:00,,0834.6,5.01,0.00,27.4,26.7,00.0,36.5,29.2,21.6,0000.6,0011.97,0007.65,0006.95
2021-09-30 18:25:00,,0834.6,5.00,0.00,27.5,26.7,00.0,36.5,29.3,21.8,0000.5,0011.61,0007.63,0006.96
2021-09-30 18:26:00,,0834.5,5.00,0.00,27.5,26.7,00.0,36.5,29.3,22.1,-000.2,0011.80,0007.60,0006.94
2021-09-30 18:27:00,,0834.5,5.00,0.00,27.5,26.7,00.0,36.5,29.3,21.9,-000.6,0011.94,0007.63,0006.95
2021-09-30 18:28:00,,0834.5,5.00,0.00,27.5,26.7,00.0,36.5,29.3,22.0,-001.1,0011.86,0007.57,0006.94
2021-09-30 18:29:00,,0834.6,5.01,0.00,27.5,26.8,00.0,36.5,29.3,21.8,-001.3,0011.88,0007.58,0006.97
2021-09-30 18:30:00,,0834.6,4.98,0.00,27.5,26.7,00.0,36.5,29.3,21.9,-000.7,0012.03,0007.62,0007.00
2021-09-30 18:31:00,,0834.6,4.99,0.00,27.5,26.7,00.0,36.5,29.3,21.9,-000.7,0012.19,0007.65,0007.04
2021-09-30 18:32:00,,0834.6,5.00,0.00,27.5,26.7,00.0,36.5,29.3,22.0,-000.5,0012.37,0007.69,0007.06
2021-09-30 18:33:00,,0834.6,5.01,0.00,27.5,26.7,00.0,36.5,29.3,21.8,-000.9,0012.37,0007.71,0007.09
2021-09-30 18:34:00,,0834.6,4.99,0.00,27.5,26.7,00.0,36.5,29.3,21.9,-001.0,0012.20,0007.68,0007.11
2021-09-30 18:35:00,,0834.5,5.00,0.00,27.5,26.7,00.0,36.5,29.3,21.7,-001.2,0012.27,0007.73,0007.16
2021-09-30 18:36:00,,0834.4,5.01,0.00,27.5,26.7,00.0,36.5,29.3,21.8,-001.3,0012.43,0007.86,0007.22
2021-09-30 18:37:00,,0834.4,5.00,0.00,27.5,26.7,00.0,36.5,29.3,21.9,-000.9,0012.45,0007.93,0007.28
2021-09-30 18:38:00,,0834.5,5.00,0.00,27.5,26.7,00.0,36.5,29.3,21.9,-000.6,0013.48,0008.00,0007.34
2021-09-30 18:39:00,,0834.4,5.00,0.00,27.5,26.7,00.0,36.5,29.4,22.2,-000.3,0013.99,0008.07,0007.41
2021-09-30 18:40:00,,0834.4,5.01,0.00,27.5,26.7,00.0,36.5,29.4,22.1,-000.3,0014.12,0008.14,0007.46
2021-09-30 18:41:00,,0834.4,4.99,0.00,27.5,26.8,00.0,36.5,29.4,21.8,-000.9,0014.11,0008.21,0007.56
2021-09-30 18:42:00,,0834.4,5.00,0.00,27.5,26.8,00.0,36.5,29.4,22.3,-000.9,0014.17,0008.27,0007.62
2021-09-30 18:43:00,,0834.4,5.02,0.00,27.5,26.8,00.0,36.5,29.4,22.0,-000.9,0014.09,0008.35,0007.72
2021-09-30 18:44:00,,0834.3,4.99,0.00,27.5,26.8,00.0,36.5,29.3,21.9,-000.6,0014.14,0008.43,0007.81
2021-09-30 18:45:00,,0834.3,5.00,0.00,27.5,26.7,00.0,36.5,29.3,22.2,-000.7,0014.29,0008.55,0007.88
2021-09-30 18:46:00,,0834.3,5.01,0.00,27.5,26.7,00.0,36.6,29.3,21.9,-000.9,0014.40,0008.61,0007.94
2021-09-30 18:47:00,,0834.3,4.99,0.00,27.5,26.7,00.0,36.6,29.3,21.9,-000.9,0014.32,0008.63,0007.98
2021-09-30 18:48:00,,0834.4,5.01,0.00,27.5,26.7,00.0,36.5,29.3,22.0,-000.9,0014.22,0008.67,0008.02
2021-09-30 18:49:00,,0834.4,5.01,0.00,27.5,26.7,00.0,36.5,29.3,21.8,-001.1,0013.31,0008.69,0008.06
2021-09-30 18:50:00,,0834.3,5.00,0.00,27.5,26.7,00.0,36.5,29.3,21.8,-001.2,0013.33,0008.80,0008.17
2021-09-30 18:51:00,,0834.3,5.00,0.00,27.5,26.7,00.0,36.5,29.3,21.9,-001.0,0013.64,0008.84,0008.22
2021-09-30 18:52:00,,0834.3,5.00,0.00,27.5,26.7,00.0,36.6,29.3,21.9,-000.9,0014.22,0008.85,0008.23
2021-09-30 18:53:00,,0834.3,5.02,0.00,27.5,26.8,00.0,36.6,29.3,21.8,-001.0,0014.20,0008.87,0008.25
2021-09-30 18:54:00,,0834.4,5.00,0.00,27.5,26.8,00.0,36.6,29.4,21.7,-001.4,0014.24,0008.87,0008.24
2021-09-30 18:55:00,,0834.3,5.00,0.00,27.6,26.8,00.0,36.6,29.4,21.7,-001.9,0014.42,0008.88,0008.23
2021-09-30 18:56:00,,0834.4,5.00,0.00,27.6,26.8,00.0,36.6,29.4,21.8,-001.9,0014.41,0008.87,0008.25
2021-09-30 18:57:00,,0834.4,5.00,0.00,27.6,26.9,00.0,36.6,29.5,21.7,-001.8,0014.34,0008.87,0008.28
2021-09-30 18:58:00,,0834.4,5.01,0.00,27.6,26.9,00.0,36.6,29.4,21.6,-001.8,0015.12,0008.89,0008.32
2021-09-30 18:59:00,,0834.4,5.00,0.00,27.6,26.9,00.0,36.6,29.5,21.7,-001.9,0015.26,0008.89,0008.35
